Printer-friendly version

IAU Minor Planet Center

Minor Planet Center

MPEC 2004-T59 : 2004 TR13

The following Minor Planet Electronic Circular may be linked-to from your own Web pages, but must not otherwise be redistributed electronically.


Read MPEC 2004-T58 Read MPEC 2004-T60


M.P.E.C. 2004-T59                                Issued 2004 Oct. 11, 22:50 UT

     The Minor Planet Electronic Circulars contain information on unusual
         minor planets and routine data on comets.  They are published
   on behalf of Commission 20 of the International Astronomical Union by the
          Minor Planet Center, Smithsonian Astrophysical Observatory,
                          Cambridge, MA 02138, U.S.A.

                  Supported in part by the Brinson Foundation
             Prepared using the Tamkin Foundation Computer Network

                              MPC@CFA.HARVARD.EDU
          URL http://cfa-www.harvard.edu/iau/mpc.html  ISSN 1523-6714

                                   2004 TR13

Observations:
     K04T13R* C2004 10 10.37918 21 43 25.23 -22 19 05.9          18.1   ET059608
     K04T13R  C2004 10 10.38964 21 43 29.45 -22 17 51.1          18.5   ET059608
     K04T13R  C2004 10 10.40025 21 43 33.58 -22 16 35.4          18.4   ET059608
     K04T13R  C2004 10 11.21989 21 48 52.28 -20 43 24.7          18.6 R ET059854
     K04T13R  C2004 10 11.22105 21 48 52.53 -20 43 19.1          18.6 R ET059854
     K04T13R  C2004 10 11.22221 21 48 53.21 -20 43 10.5          18.2 R ET059854
     K04T13R  C2004 10 11.40823 21 50 02.32 -20 22 24.8          17.4 V ET059428
     K04T13R  C2004 10 11.41036 21 50 03.08 -20 22 11.6          17.6 V ET059428
     K04T13R  C2004 10 11.41139 21 50 03.44 -20 22 04.6          17.6 V ET059428
     K04T13R  C2004 10 11.41235 21 50 03.76 -20 21 58.3          17.7 V ET059428
     K04T13R  C2004 10 11.81984 21 52 28.51 -19 39 17.1          17.1 R ET059952
     K04T13R  C2004 10 11.82267 21 52 29.42 -19 38 59.5          17.4 R ET059952
     K04T13R  C2004 10 11.82551 21 52 30.36 -19 38 41.5          17.0 R ET059952
     K04T13R  C2004 10 11.82852 21 52 31.40 -19 38 22.9          17.1 R ET059952
     K04T13R  C2004 10 11.83164 21 52 32.43 -19 38 03.0          17.3 R ET059952
     K04T13R  C2004 10 11.83456 21 52 33.43 -19 37 45.0          17.0 R ET059952
     K04T13R  C2004 10 11.83569 21 52 33.76 -19 37 38.2          17.3 R ET059952
     K04T13R  C2004 10 11.85289 21 52 39.47 -19 35 50.7          17.4 R ET059176
     K04T13R  C2004 10 11.85383 21 52 39.81 -19 35 45.1          17.4 R ET059176
     K04T13R  C2004 10 11.85473 21 52 40.09 -19 35 39.6          17.6 R ET059176
     K04T13R  C2004 10 11.85565 21 52 40.41 -19 35 33.7          17.3 R ET059176
     K04T13R  C2004 10 11.85657 21 52 40.71 -19 35 27.8          17.3 R ET059176
     K04T13R  C2004 10 11.85749 21 52 40.99 -19 35 22.4          17.4 R ET059176

Observer details:
176 Observatori Astronomic de Consell.  Observers A. Lopez, R. Pacheco,
    J. Forteza.  0.41-m f/4 reflector + CCD.
428 Reedy Creek.  Observer J. Broughton.  0.51-m f/3.6 reflector + CCD.
608 Haleakala-NEAT/MSSS.  Observers R. Bambery, M. Hicks, K. Lawrence,
    E. Helin, P. Kervin, J. Africano, R. Maeda.  1.2-m reflector + CCD.
854 Sabino Canyon Observatory, Tucson.  Observer J. E. McGaha.  0.36-m f/10.0
    Schmidt-Cassegrain + CCD.
952 Marxuquera.  Measurer J. J. Gomez.

Orbital elements:
2004 TR13
Epoch 2004 Oct. 2.0 TT = JDT 2453280.5                  MPC
M  18.40430              (2000.0)            P               Q
n   0.36136306     Peri.  249.36599     -0.14999480     +0.98648509
a   1.9521217      Node    12.56224     -0.75607612     -0.07147171
e   0.7196587      Incl.   17.64959     -0.63706394     -0.14744137
P   2.73           H   18.7           G   0.15
From 22 observations 2004 Oct. 10-11.

Ephemeris:
2004 TR13                a,e,i = 1.95, 0.72, 18                  q = 0.5473
Date    TT    R. A. (2000) Decl.     Delta      r     Elong.  Phase     V
2004 10 12    21 53.50   -19 20.3    0.271    1.173   124.7    44.3    17.9
2004 10 22    22 31.49   -07 37.9    0.417    1.294   127.8    37.4    18.9
2004 11 01    22 52.82   -01 42.2    0.583    1.409   124.9    35.3    19.7
2004 11 11    23 08.95   +01 56.6    0.761    1.520   119.9    34.4    20.4
2004 11 21    23 23.22   +04 32.9    0.949    1.626   114.2    33.7    21.0
2004 12 01    23 36.83   +06 38.0    1.145    1.727   108.1    32.9    21.6
2004 12 11    23 50.26   +08 26.0    1.347    1.824   101.8    31.9    22.0

Timothy B. Spahr             (C) Copyright 2004 MPC           M.P.E.C. 2004-T59

Read MPEC 2004-T58 Read MPEC 2004-T60


Our Web policy. Index to the CBAT/MPC/ICQ pages.


Valid HTML 4.01!